Date,TemperatureHighF,TemperatureAvgF,TemperatureLowF,DewpointHighF,DewpointAvgF,DewpointLowF,HumidityHigh,HumidityAvg,HumidityLow,PressureMaxIn,PressureMinIn,WindSpeedMaxMPH,WindSpeedAvgMPH,GustSpeedMaxMPH,PrecipitationSumIn
2013-1-1,33.0,27.2,14.8,27.0,18.0,-99.9,81,71,60,29.97,29.80,13,-6,20,0.00
2013-1-2,26.7,17.7,4.7,16.0,9.8,0.0,93,72,50,30.16,29.96,20,4,25,0.00
2013-1-3,23.0,14.9,2.4,15.0,6.1,-4.0,80,68,53,30.18,30.05,12,4,19,0.00
2013-1-4,34.6,26.3,15.9,25.0,19.6,14.0,95,76,63,30.04,29.89,17,4,22,0.00
2013-1-5,36.2,28.7,17.4,25.0,20.6,14.0,91,72,58,30.27,29.93,15,4,24,0.00
2013-1-6,39.2,29.0,21.0,29.0,24.5,19.0,94,84,66,30.21,29.96,12,2,13,0.01
2013-1-7,33.2,26.6,15.3,28.0,21.4,13.0,97,81,61,30.40,30.02,13,3,21,0.00
2013-1-8,43.3,29.1,15.3,29.0,23.7,13.0,96,82,55,30.41,30.32,11,2,16,0.12
2013-1-9,40.9,31.5,18.0,35.0,27.5,17.0,97,86,68,30.39,30.09,11,2,21,0.11
2013-1-10,39.8,35.8,27.5,31.0,24.8,23.0,82,65,52,30.54,30.15,23,8,33,0.02
2013-1-11,35.6,29.7,20.6,34.0,27.3,19.0,97,91,77,30.53,30.18,3,0,7,0.25
2013-1-12,41.4,37.3,33.8,41.0,37.0,33.0,99,99,97,30.19,30.12,3,1,8,0.08
2013-1-13,44.1,40.0,35.7,44.0,40.0,36.0,100,100,99,30.15,30.00,9,1,12,0.01
2013-1-14,48.1,41.0,32.2,48.0,37.5,26.0,100,88,67,30.28,29.87,17,4,23,0.02
2013-1-15,34.1,31.4,28.0,27.0,25.3,24.0,85,78,70,30.34,30.22,6,2,14,0.00
2013-1-18,21.0,17.7,13.7,9.0,4.7,1.0,72,58,47,30.46,30.35,17,4,19,0.01
2013-1-19,40.1,30.4,19.0,29.0,21.0,9.0,76,68,59,30.39,29.89,17,4,22,0.04
2013-1-20,45.9,35.4,23.1,31.0,23.6,10.0,84,64,29,29.97,29.62,21,6,31,0.11
2013-1-21,25.3,20.4,14.6,19.0,13.2,9.0,91,74,54,30.08,29.79,11,2,18,0.00
2013-1-22,17.2,14.0,6.8,15.0,2.1,-7.0,94,61,41,30.13,29.78,17,6,26,0.00
2013-1-23,12.6,6.8,2.0,-2.0,-4.6,-7.0,76,60,47,30.19,30.11,15,4,24,0.00
2013-1-24,14.8,9.1,-0.5,2.0,-4.2,-8.0,74,56,39,30.33,30.16,26,9,33,0.00
2013-1-25,17.3,12.2,5.5,11.0,1.6,-3.0,88,64,43,30.38,30.07,11,3,20,0.00
2013-1-26,18.1,12.5,6.2,8.0,4.5,2.0,91,71,53,30.32,30.04,16,6,24,0.00
2013-1-27,26.0,17.7,10.7,8.0,3.2,-2.0,81,56,32,30.50,30.33,13,4,21,0.00
2013-1-28,29.9,22.9,12.3,29.0,18.3,5.0,97,83,53,30.48,30.00,6,1,10,0.02
2013-1-29,33.3,31.1,28.7,32.0,30.2,28.0,98,96,93,30.16,30.00,4,1,9,0.15
2013-1-30,52.7,42.8,32.0,53.0,42.7,32.0,100,99,98,30.12,29.39,13,2,23,0.09
2013-1-31,56.2,41.5,24.7,56.0,32.6,12.0,100,73,46,29.63,28.99,25,11,42,0.79
2013-2-1,26.7,22.5,17.5,18.0,10.2,5.0,76,60,44,30.14,29.64,19,8,26,0.00
2013-2-2,26.8,19.5,10.1,16.0,9.5,6.0,90,67,42,30.25,30.06,14,4,21,0.00
2013-2-3,26.6,19.9,13.0,18.0,14.4,10.0,94,80,62,30.05,29.77,7,1,13,0.02
2013-2-4,25.2,20.1,13.5,15.0,10.3,6.0,91,67,49,29.95,29.78,15,4,20,0.00
2013-2-5,27.8,23.0,19.5,21.0,16.7,10.0,92,77,65,30.00,29.92,6,1,8,0.00
2013-2-6,33.8,26.8,18.8,25.0,17.1,2.0,94,70,41,30.34,29.91,19,4,21,0.03
2013-2-7,29.0,21.9,14.2,14.0,7.4,4.0,70,55,40,30.47,30.33,10,2,12,0.00
2013-2-8,27.6,24.1,18.9,26.0,20.3,11.0,95,86,61,30.42,29.66,26,9,41,0.00
2013-2-9,21.5,18.0,11.6,19.0,12.6,2.0,95,80,59,30.30,29.73,20,9,44,0.00
2013-2-10,34.6,19.7,10.2,11.0,2.8,-3.0,78,52,21,30.47,30.30,13,3,19,0.22
2013-2-11,40.0,32.3,15.7,40.0,30.6,9.0,99,93,70,30.35,29.66,12,1,19,0.35
2013-2-12,40.4,34.5,31.3,34.0,29.0,24.0,98,81,61,29.92,29.68,23,5,26,0.07
2013-2-13,38.8,32.4,21.5,28.0,23.4,19.0,94,70,53,29.91,29.71,10,2,18,0.01
2013-2-14,38.3,29.9,22.5,28.0,23.7,20.0,96,79,54,29.99,29.72,7,2,15,0.09
2013-2-15,47.5,34.8,23.3,32.0,28.5,22.0,97,80,53,30.00,29.91,13,2,20,0.00
2013-2-16,35.1,29.3,25.4,29.0,22.0,17.0,95,75,53,29.96,29.72,12,3,14,0.10
2013-2-17,25.3,18.3,11.6,16.0,5.0,1.0,69,57,42,29.85,29.56,29,11,41,0.01
2013-2-18,27.4,17.0,9.1,9.0,3.6,1.0,78,58,35,30.21,29.86,25,8,37,0.00
2013-2-19,40.8,31.3,14.5,37.0,25.4,8.0,98,79,61,30.22,29.62,9,2,15,0.13
2013-2-20,34.4,25.9,19.8,33.0,15.6,7.0,95,66,51,29.87,29.62,16,7,26,0.01
2013-2-21,26.0,20.6,16.9,15.0,12.2,10.0,80,70,61,30.31,29.86,26,9,33,0.00
2013-2-22,35.6,26.2,12.9,26.0,19.6,11.0,93,77,60,30.41,30.29,11,2,19,0.00
2013-2-23,34.3,31.2,29.0,34.0,29.8,26.0,98,94,84,30.30,29.86,10,4,14,0.08
2013-2-24,37.4,32.9,29.5,35.0,31.0,26.0,98,93,81,29.92,29.73,16,4,20,0.07
2013-2-25,38.7,31.6,25.2,28.0,25.6,23.0,93,79,64,30.25,29.93,13,3,23,0.00
2013-2-26,38.4,30.7,20.4,30.0,25.9,19.0,97,83,66,30.32,30.06,15,4,23,0.01
2013-2-27,38.9,35.3,31.1,38.0,34.8,29.0,99,98,92,30.02,29.55,26,9,32,0.92
2013-2-28,43.1,35.8,32.1,38.0,34.0,32.0,99,94,71,29.62,29.54,5,1,8,0.00
2013-3-1,39.8,34.6,30.9,33.0,30.0,28.0,93,84,66,29.74,29.57,15,6,21,0.00
2013-3-2,33.2,29.8,25.3,27.0,24.9,22.0,88,82,73,29.74,29.67,12,6,17,0.00
2013-3-3,28.5,25.2,22.4,24.0,20.6,18.0,88,83,73,29.71,29.65,15,7,19,0.00
2013-3-4,32.6,27.0,23.2,23.0,20.8,18.0,86,78,66,29.85,29.71,21,10,32,0.01
2013-3-5,42.3,33.4,25.5,28.0,24.9,21.0,84,72,54,30.05,29.85,13,5,24,0.00
2013-3-6,37.3,33.6,31.6,34.0,30.1,28.0,94,87,77,30.03,29.95,23,9,35,0.02
2013-3-7,34.6,31.2,29.1,30.0,28.2,26.0,95,89,80,30.06,29.98,23,6,29,0.05
2013-3-8,38.1,32.2,27.9,32.0,28.3,24.0,95,86,67,30.19,29.96,11,4,18,0.29
2013-3-9,52.6,36.7,24.8,28.0,24.2,21.0,88,63,37,30.33,30.18,9,3,16,0.19
2013-3-10,49.6,35.4,20.4,33.0,27.5,19.0,94,75,44,30.39,30.29,9,2,11,0.01
2013-3-11,46.8,39.3,31.8,42.0,36.3,30.0,98,89,74,30.32,30.11,8,2,14,0.00
2013-3-12,49.3,45.0,36.2,49.0,44.7,34.0,100,99,92,30.11,29.68,12,4,21,1.00
2013-3-13,43.6,36.7,31.1,34.0,27.7,25.0,91,71,51,29.83,29.76,15,5,20,0.00
2013-3-14,31.2,26.1,22.1,28.0,17.6,12.0,94,71,53,29.88,29.80,25,9,30,0.07
2013-3-15,37.0,28.2,20.2,29.0,19.2,12.0,94,70,46,29.92,29.70,17,6,27,0.00
2013-3-16,32.7,29.4,23.8,27.0,19.1,12.0,85,66,44,29.90,29.74,9,3,19,0.01
2013-3-17,32.3,26.3,19.6,17.0,11.5,7.0,75,55,35,30.32,29.90,15,5,25,0.00
2013-3-18,33.7,25.2,13.9,24.0,11.4,6.0,93,58,36,30.44,30.13,15,4,18,0.00
2013-3-19,33.9,29.9,25.9,32.0,28.8,24.0,98,95,91,30.12,29.68,15,6,21,0.18
2013-3-20,36.8,28.4,21.4,26.0,19.9,16.0,94,72,45,29.82,29.76,16,4,21,0.20
2013-3-21,35.3,27.3,19.1,19.0,14.7,10.0,91,62,39,29.83,29.62,12,3,15,0.17
2013-3-22,34.1,27.1,15.2,25.0,17.6,11.0,83,68,57,29.82,29.68,17,5,21,0.05
2013-3-23,38.8,32.6,28.3,25.0,21.1,18.0,80,64,45,29.88,29.74,24,8,33,0.02
2013-3-24,41.6,33.8,27.7,25.0,22.3,20.0,74,64,50,29.90,29.73,15,5,23,0.00
2013-3-25,41.5,35.1,28.8,29.0,25.8,23.0,79,69,56,29.75,29.48,17,6,23,0.00
2013-3-26,43.2,35.4,26.2,30.0,25.6,21.0,86,69,45,29.83,29.57,13,3,20,0.00
2013-3-27,47.6,37.4,25.7,29.0,24.7,19.0,84,62,34,29.92,29.82,16,5,26,0.00
2013-3-28,46.3,38.6,33.3,34.0,31.0,28.0,89,75,57,30.07,29.91,12,4,18,0.00
2013-3-29,49.3,41.0,35.3,33.0,30.1,28.0,79,66,49,30.09,30.02,15,5,19,0.00
2013-3-30,52.8,41.0,30.1,32.0,26.2,20.0,89,60,31,30.12,30.05,12,4,19,0.00
2013-3-31,53.3,40.1,25.4,39.0,29.0,21.0,95,67,36,30.13,29.68,12,3,19,0.09
2013-4-1,56.8,40.9,29.3,45.0,35.3,16.0,98,82,50,29.84,29.57,21,5,26,0.03
2013-4-2,36.4,30.4,25.4,21.0,13.0,8.0,71,50,32,30.01,29.84,18,7,28,0.00
2013-4-3,39.9,31.6,26.0,17.0,14.5,12.0,65,50,33,30.24,30.00,21,9,29,0.00
2013-4-4,52.3,37.3,27.2,28.0,20.0,14.0,75,53,27,30.35,30.06,11,4,19,0.00
2013-4-5,56.4,42.4,33.4,30.0,24.6,19.0,84,54,25,30.06,29.71,17,6,24,0.00
2013-4-6,45.8,35.0,27.4,24.0,13.4,7.0,70,44,22,30.31,29.95,15,5,27,0.00
2013-4-7,53.9,42.0,26.8,41.0,30.7,17.0,93,67,41,30.31,30.01,12,4,22,0.01
2013-4-8,64.4,51.3,37.3,42.0,39.0,37.0,99,67,37,30.07,29.96,8,2,14,0.00
2013-4-9,68.5,58.2,44.9,52.0,44.8,41.0,96,64,41,30.01,29.86,15,3,25,0.00
2013-4-10,62.3,53.5,45.0,54.0,48.7,41.0,98,84,69,29.95,29.81,7,2,15,0.57
2013-4-11,51.8,47.2,37.7,51.0,42.7,30.0,99,85,53,30.08,29.80,13,3,18,0.00
2013-4-12,37.7,35.7,33.8,36.0,34.0,32.0,98,94,80,30.09,29.76,19,8,27,0.33
2013-4-13,49.1,41.3,33.4,38.0,35.3,33.0,98,81,60,29.94,29.77,10,2,13,0.05
2013-4-14,46.9,39.2,30.7,38.0,30.6,25.0,98,74,48,30.23,29.93,15,3,21,0.00
2013-4-15,58.7,43.9,29.3,38.0,31.8,25.0,89,65,43,30.38,30.23,9,2,13,0.00
2013-4-16,63.7,48.6,33.0,52.0,43.1,30.0,94,82,62,30.38,30.10,17,3,22,0.00
2013-4-17,63.0,52.6,44.1,52.0,38.4,29.0,97,62,37,30.30,30.10,12,4,17,0.04
2013-4-18,58.8,48.4,35.3,46.0,36.3,29.0,90,65,42,30.36,30.12,15,4,25,0.00
2013-4-19,70.3,59.2,48.7,63.0,57.3,46.0,100,93,76,30.12,29.62,12,4,24,0.18
2013-4-20,59.8,46.6,34.9,59.0,35.7,25.0,99,69,38,30.27,29.63,16,6,26,0.25
2013-4-21,52.3,38.9,29.1,30.0,23.1,17.0,73,55,30,30.64,30.28,13,4,25,0.00
2013-4-22,56.7,43.1,30.2,35.0,29.8,26.0,90,63,38,30.70,30.52,14,6,23,0.00
2013-4-23,43.1,38.1,32.5,39.0,34.2,29.0,93,86,78,30.53,30.12,16,6,21,0.00
2013-4-24,72.9,53.1,39.8,52.0,44.4,38.0,95,76,43,30.11,29.81,9,3,15,0.00
2013-4-25,58.4,48.8,38.0,50.0,35.2,27.0,97,63,34,30.26,29.83,13,4,26,0.01
2013-4-26,60.5,47.1,30.4,40.0,31.0,26.0,90,57,31,30.42,30.27,10,3,14,0.00
2013-4-27,66.5,51.6,32.1,43.0,33.2,28.0,84,53,27,30.43,30.27,8,2,14,0.00
2013-4-28,69.3,53.2,36.0,48.0,37.1,30.0,88,56,41,30.31,30.19,9,2,17,0.00
2013-4-29,58.5,51.5,45.6,49.0,40.1,31.0,89,66,52,30.25,30.20,8,2,12,0.00
2013-4-30,68.3,53.4,37.6,44.0,35.3,25.0,95,56,28,30.33,30.22,8,2,15,0.00
2013-5-1,71.8,53.2,33.8,47.0,37.6,29.0,88,59,34,30.48,30.33,10,2,18,0.00
2013-5-2,78.0,58.6,38.0,51.0,41.7,34.0,92,58,27,30.45,30.28,12,2,19,0.00
2013-5-3,67.6,55.0,44.2,46.0,39.5,31.0,89,58,37,30.45,30.32,15,5,22,0.00
2013-5-4,71.8,54.2,37.2,50.0,42.2,35.0,98,69,27,30.36,30.21,12,2,18,0.00
2013-5-5,69.2,49.8,32.8,45.0,39.1,32.0,98,71,34,30.29,30.19,10,3,14,0.00
2013-5-6,72.5,52.3,35.5,54.0,44.5,35.0,99,78,38,30.28,30.13,8,1,21,0.00
2013-5-7,76.7,59.1,40.6,59.0,50.7,40.0,99,77,39,30.17,30.07,10,2,15,0.00
2013-5-8,67.0,58.5,52.6,62.0,55.4,-99.9,99,94,81,30.13,29.99,12,4,20,0.18
2013-5-9,63.5,55.8,50.2,60.0,55.1,50.0,100,97,88,30.01,29.87,9,1,13,0.77
2013-5-10,77.0,62.3,47.6,60.0,53.9,48.0,100,77,47,29.97,29.88,10,2,12,0.00
2013-5-11,63.4,59.7,55.9,62.0,58.7,54.0,100,96,82,29.88,29.67,10,2,19,0.42
2013-5-12,65.2,55.3,41.7,59.0,46.4,28.0,100,74,41,29.84,29.61,14,4,21,0.00
2013-5-13,50.1,42.0,32.7,34.0,31.1,28.0,94,67,44,30.07,29.85,15,3,18,0.00
2013-5-14,56.1,44.5,33.8,36.0,30.8,27.0,88,61,37,30.09,30.01,12,3,16,0.00
2013-5-15,61.5,46.7,30.7,54.0,42.2,30.0,97,85,57,30.08,29.69,11,2,18,0.02
2013-5-16,78.5,62.7,43.6,53.0,43.1,35.0,99,57,22,29.81,29.68,16,4,22,0.01
2013-5-17,66.8,56.8,45.3,46.0,40.2,36.0,83,56,37,30.20,29.81,13,4,20,0.00
2013-5-18,69.5,54.6,38.5,49.0,44.2,37.0,96,71,35,30.30,30.20,9,2,15,0.00
2013-5-19,57.4,52.4,46.7,55.0,51.5,46.0,99,97,92,30.33,30.19,7,2,11,0.18
2013-5-20,80.1,64.8,53.6,67.0,60.4,53.0,100,87,60,30.18,29.93,8,1,11,0.01
2013-5-21,86.6,70.5,56.3,73.0,65.2,56.0,100,85,53,29.96,29.79,11,2,14,0.38
2013-5-22,75.5,64.2,53.3,71.0,62.7,53.0,100,95,83,29.91,29.81,10,2,21,0.14
2013-5-23,70.2,65.0,62.9,70.0,64.9,63.0,100,99,95,29.86,29.74,10,2,11,1.34
2013-5-24,62.9,54.0,42.5,63.0,53.1,41.0,100,97,90,29.87,29.62,12,4,20,0.20
2013-5-25,44.5,42.0,40.4,43.0,40.7,39.0,97,95,91,29.89,29.80,19,6,25,0.33
2013-5-26,56.1,46.9,38.7,45.0,40.7,38.0,98,80,58,30.15,29.84,18,6,31,0.02
2013-5-27,69.4,53.0,35.3,45.0,39.7,35.0,99,66,32,30.21,30.11,12,3,20,0.00
2013-5-28,69.9,55.1,39.9,55.0,47.8,39.0,99,80,42,30.22,30.14,8,1,14,0.01
2013-5-29,80.0,65.0,54.6,70.0,62.0,55.0,100,91,72,30.15,29.97,12,2,21,1.32
2013-5-30,86.4,73.0,58.6,70.0,65.6,59.0,100,80,53,30.09,30.02,13,2,16,0.01
2013-5-31,89.8,75.5,61.0,70.0,65.4,60.0,100,75,37,30.09,29.95,9,1,16,0.00
2013-6-1,88.0,74.6,59.9,74.0,66.7,59.0,98,78,54,29.98,29.86,8,2,16,0.00
2013-6-2,85.9,73.4,64.3,75.0,68.7,64.0,99,86,67,29.88,29.70,9,2,15,0.66
2013-6-3,74.9,66.4,55.6,67.0,61.8,43.0,100,86,62,29.86,29.76,10,2,16,1.05
2013-6-4,68.4,58.2,48.1,52.0,44.7,40.0,81,62,46,30.11,29.87,15,4,23,0.00
2013-6-5,73.3,59.9,44.1,55.0,48.3,42.0,96,67,42,30.19,30.09,9,1,13,0.00
2013-6-6,68.9,57.5,45.5,59.0,52.2,45.0,97,84,64,30.15,30.04,12,3,18,0.15
2013-6-7,57.2,54.6,52.0,57.0,54.3,52.0,99,98,97,30.04,29.72,10,4,18,1.16
2013-6-8,73.1,60.4,50.5,64.0,57.0,50.0,99,89,71,30.03,29.63,13,4,17,0.20
2013-6-9,75.6,63.3,50.2,60.0,56.1,50.0,99,80,53,30.17,30.04,8,2,13,0.00
2013-6-10,66.9,59.9,52.9,63.0,58.1,52.0,99,94,83,30.18,29.91,13,4,19,0.70
2013-6-11,71.3,62.2,56.1,69.0,60.9,56.0,100,95,84,29.90,29.55,11,3,17,0.36
2013-6-12,69.8,61.4,52.1,58.0,53.5,50.0,93,76,56,29.84,29.63,19,6,26,0.00
2013-6-13,55.8,52.5,48.5,55.0,51.9,48.0,99,98,95,29.82,29.60,16,4,23,1.24
2013-6-14,58.7,50.7,48.4,58.0,48.0,-99.9,99,96,96,29.84,29.60,13,-19,19,0.33
2013-6-15,75.2,63.1,52.6,56.0,52.4,47.0,100,72,41,29.97,29.85,11,2,16,0.01
2013-6-16,74.3,62.8,47.3,62.0,56.0,46.0,99,80,60,29.97,29.73,7,1,17,0.00
2013-6-17,82.8,66.8,53.7,68.0,59.3,53.0,99,79,46,29.91,29.79,12,2,36,0.00
2013-6-18,78.9,64.5,56.1,69.0,61.2,55.0,99,90,66,29.91,29.81,7,2,22,0.33
2013-6-19,71.0,60.6,49.7,56.0,50.0,42.0,97,71,37,30.16,29.89,9,2,15,0.01
2013-6-20,77.1,62.6,44.7,58.0,51.7,43.0,98,71,45,30.26,30.16,7,1,12,0.00
2013-6-21,80.9,67.6,52.0,67.0,58.9,50.0,97,75,57,30.25,30.19,9,1,12,0.00
2013-6-22,81.7,69.3,55.8,67.0,60.1,54.0,95,74,53,30.22,30.10,12,1,14,0.00
2013-6-23,87.0,74.1,61.6,74.0,65.7,56.0,92,76,51,30.15,30.01,7,2,20,0.00
2013-6-24,88.1,74.9,65.6,74.0,68.6,64.0,97,82,56,30.03,29.90,9,2,16,0.19
2013-6-25,87.1,73.4,62.9,76.0,68.3,62.0,100,86,55,29.96,29.75,24,2,34,0.30
2013-6-26,80.6,72.2,66.0,72.0,69.0,66.0,100,90,70,29.81,29.73,9,2,15,0.00
2013-6-27,65.2,63.8,62.5,65.0,63.6,63.0,100,99,98,29.80,29.76,0,0,2,0.00
2013-6-29,82.9,75.2,67.9,71.0,68.7,66.0,98,81,62,29.68,29.56,9,2,14,0.00
2013-6-30,82.1,73.1,67.6,75.0,70.3,67.0,98,91,77,29.90,29.69,10,1,16,0.00
2013-7-1,72.7,70.6,68.3,72.0,70.1,68.0,100,98,96,30.04,29.90,7,1,9,0.90
2013-7-2,81.7,73.7,69.7,76.0,71.9,69.0,100,94,81,30.15,30.04,7,1,11,0.04
2013-7-3,81.6,74.6,68.8,76.0,71.6,69.0,99,91,74,30.20,30.13,11,2,16,0.03
2013-7-4,86.8,78.5,71.1,78.0,73.4,71.0,99,85,67,30.20,30.10,15,2,18,0.00
2013-7-5,89.8,79.7,71.0,78.0,73.0,70.0,95,81,62,30.16,30.04,7,2,18,0.00
2013-7-6,87.4,78.7,71.4,75.0,72.3,70.0,97,82,62,30.08,29.98,9,2,14,0.00
2013-7-7,90.0,76.9,67.9,78.0,72.9,68.0,100,88,62,30.02,29.89,7,1,17,0.12
2013-7-8,84.6,74.1,65.9,72.0,69.1,65.0,99,86,63,30.00,29.91,8,2,13,0.28
2013-7-9,83.3,71.8,64.3,77.0,69.7,64.0,100,93,74,30.05,29.98,10,1,10,0.01
2013-7-10,82.6,73.9,69.7,78.0,72.6,69.0,99,96,81,30.01,29.77,9,1,14,0.67
2013-7-11,80.2,72.3,66.2,72.0,68.4,62.0,100,88,65,29.91,29.76,6,1,11,0.14
2013-7-12,79.4,70.2,64.3,70.0,63.5,58.0,86,79,69,30.14,29.91,13,4,16,0.00
2013-7-13,74.0,68.1,62.1,72.0,66.1,58.0,98,93,76,30.29,30.14,8,2,11,0.12
2013-7-14,86.8,77.5,71.0,76.0,72.8,70.0,100,86,60,30.31,30.20,8,2,11,0.11
2013-7-15,87.2,78.0,69.4,75.0,71.4,69.0,100,82,57,30.20,30.11,11,2,17,0.00
2013-7-16,89.0,78.8,65.4,73.0,68.6,65.0,97,73,49,30.17,30.11,11,2,16,0.00
2013-7-17,89.8,78.5,66.2,75.0,70.0,65.0,99,77,52,30.17,30.02,5,1,12,0.00
2013-7-18,90.5,80.4,70.5,77.0,72.9,69.0,96,79,56,30.03,29.93,6,2,13,0.00
2013-7-19,92.6,81.7,70.4,79.0,74.1,70.0,99,79,58,29.93,29.73,11,2,19,0.00
2013-7-20,86.8,78.5,68.1,76.0,71.6,64.0,95,80,63,29.81,29.66,9,2,16,0.00
2013-7-21,85.1,74.4,65.7,70.0,65.0,60.0,91,73,51,29.95,29.82,4,1,9,0.00
2013-7-22,83.4,72.8,61.9,74.0,68.5,61.0,99,87,67,29.96,29.81,8,2,12,0.06
2013-7-23,84.3,73.2,69.5,75.0,71.2,67.0,100,94,70,29.80,29.53,13,1,20,1.53
2013-7-24,76.3,69.6,59.4,70.0,64.2,54.0,100,84,65,29.92,29.58,11,2,18,0.01
2013-7-25,64.3,59.5,54.5,59.0,54.7,49.0,96,84,78,30.07,29.93,8,2,14,0.01
2013-7-26,76.2,64.4,59.3,66.0,60.3,58.0,97,88,61,30.04,29.97,9,2,12,0.14
2013-7-27,81.1,67.5,53.9,68.0,61.3,53.0,100,82,57,30.04,29.96,6,1,13,0.01
2013-7-28,77.6,68.5,59.6,71.0,65.3,59.0,100,90,71,29.99,29.93,5,1,11,0.00
2013-7-29,82.7,71.2,61.3,70.0,64.3,56.0,99,80,53,30.06,29.95,10,2,14,0.00
2013-7-30,76.0,67.1,56.8,63.0,57.7,53.0,92,73,55,30.12,30.05,10,3,15,0.00
2013-7-31,79.5,66.9,55.3,65.0,59.7,55.0,98,79,54,30.14,30.03,7,1,8,0.00
2013-8-1,76.3,63.6,56.3,70.0,61.9,55.0,99,94,72,30.03,29.84,10,1,15,0.28
2013-8-2,78.4,69.0,60.9,66.0,63.0,60.0,100,83,56,29.87,29.77,12,2,14,0.09
2013-8-3,77.0,65.9,59.3,66.0,61.5,58.0,97,86,66,29.87,29.79,9,1,12,0.01
2013-8-4,75.3,63.1,53.3,61.0,56.6,52.0,98,81,59,29.93,29.81,10,2,17,0.05
2013-8-5,72.2,61.6,52.5,55.0,51.4,48.0,94,71,44,30.04,29.93,11,3,21,0.01
2013-8-6,78.0,62.7,46.3,62.0,55.1,45.0,99,78,50,30.13,30.04,8,1,12,0.00
2013-8-7,75.5,64.8,53.4,67.0,60.0,52.0,100,85,61,30.16,30.07,10,2,12,0.00
2013-8-8,79.8,71.1,65.6,74.0,68.8,64.0,99,92,76,30.06,29.99,5,1,12,0.08
2013-8-9,75.4,71.2,68.8,74.0,70.8,69.0,100,98,95,29.99,29.75,7,2,16,3.20
2013-8-10,78.5,69.3,60.2,69.0,61.8,48.0,100,79,55,30.03,29.82,12,3,20,0.00
2013-8-11,75.1,64.8,55.3,63.0,55.7,48.0,93,73,55,30.10,30.00,9,2,11,0.00
2013-8-12,80.4,67.4,56.5,67.0,60.3,55.0,99,80,53,30.03,29.91,9,1,10,0.00
2013-8-13,72.1,65.5,60.9,69.0,64.1,59.0,99,95,85,29.92,29.67,7,1,10,0.25
2013-8-14,68.5,60.6,52.6,62.0,53.5,50.0,97,78,58,30.00,29.72,14,4,21,0.00
2013-8-15,72.3,59.2,45.4,56.0,51.4,44.0,99,78,52,30.14,30.01,10,2,13,0.00
2013-8-16,75.0,60.9,47.5,62.0,53.5,47.0,99,79,50,30.20,30.12,5,0,9,0.00
2013-8-17,80.7,64.3,50.4,64.0,57.6,49.0,99,81,47,30.27,30.20,5,0,8,0.00
2013-8-18,77.1,63.9,55.3,67.0,60.1,54.0,99,88,64,30.27,30.11,3,0,7,0.00
2013-8-19,74.7,65.6,55.9,65.0,60.9,55.0,99,86,62,30.11,30.00,7,2,11,0.00
2013-8-20,80.8,68.4,58.4,66.0,62.1,58.0,99,82,52,30.11,30.02,8,2,14,0.01
2013-8-21,82.7,69.3,56.7,68.0,62.5,57.0,100,82,50,30.16,30.03,8,2,16,0.00
2013-8-22,80.5,69.4,59.3,73.0,66.0,59.0,98,89,73,30.04,29.84,4,1,12,0.00
2013-8-23,77.5,68.8,59.8,68.0,59.9,50.0,98,74,53,30.11,29.84,10,3,15,0.00
2013-8-24,77.6,62.6,49.4,61.0,53.2,48.0,97,74,50,30.34,30.12,7,1,11,0.00
2013-8-25,79.6,63.0,46.4,61.0,53.8,46.0,100,75,42,30.38,30.20,6,1,12,0.00
2013-8-26,72.9,65.7,59.9,67.0,62.2,55.0,98,88,77,30.20,29.89,6,1,11,0.41
2013-8-27,80.6,71.0,65.3,74.0,68.0,64.0,99,91,72,29.89,29.79,7,1,10,0.37
2013-8-28,86.3,70.5,60.3,74.0,66.5,60.0,100,88,62,29.89,29.80,7,1,17,1.89
2013-8-29,76.1,67.8,63.0,69.0,65.4,61.0,100,92,75,30.03,29.89,8,2,17,0.01
2013-8-30,83.9,69.3,62.0,70.0,65.3,61.0,99,88,61,30.01,29.83,7,1,12,0.00
2013-8-31,77.3,72.2,67.4,75.0,70.7,67.0,98,95,89,29.83,29.76,4,1,8,0.02
2013-9-1,79.9,71.7,66.4,77.0,70.8,66.0,100,97,88,29.83,29.78,5,1,10,0.79
2013-9-2,76.5,70.9,65.9,74.0,70.1,65.0,100,97,89,29.81,29.66,4,1,12,0.70
2013-9-3,71.8,65.1,55.1,68.0,62.6,55.0,100,92,77,29.85,29.70,8,1,10,0.01
2013-9-4,77.6,63.2,53.0,61.0,57.1,53.0,100,83,51,29.95,29.84,12,2,17,0.00
2013-9-5,70.1,60.3,50.3,62.0,52.1,44.0,99,77,43,30.13,29.88,13,3,21,0.01
2013-9-6,65.8,53.0,41.1,52.0,44.4,40.0,98,76,44,30.25,30.12,8,1,12,0.00
2013-9-7,76.7,59.1,42.5,58.0,51.1,42.0,99,78,45,30.11,29.86,8,1,11,0.00
2013-9-8,71.5,61.9,46.8,63.0,53.9,44.0,92,77,44,30.09,29.79,13,3,28,0.00
2013-9-9,71.0,55.7,39.5,54.0,47.4,38.0,98,76,49,30.24,30.09,6,1,11,0.00
2013-9-10,76.2,66.3,57.8,73.0,64.8,54.0,99,95,87,30.15,30.02,8,2,15,0.03
2013-9-11,91.2,77.8,67.5,80.0,72.8,67.0,100,86,59,30.08,29.94,12,1,17,0.01
2013-9-12,82.5,71.3,65.3,76.0,69.1,64.0,100,93,80,29.95,29.65,9,1,16,0.94
2013-9-13,71.4,64.1,53.6,66.0,60.5,51.0,99,88,68,29.80,29.59,11,4,20,0.07
2013-9-14,61.6,53.6,45.8,52.0,48.6,45.0,95,84,68,30.09,29.79,12,4,18,0.00
2013-9-15,69.8,54.1,41.3,53.0,47.7,41.0,99,81,51,30.19,30.07,6,1,10,0.01
2013-9-16,65.2,55.7,46.4,54.0,50.9,41.0,97,84,65,30.24,30.03,10,2,17,0.01
2013-9-17,65.6,50.0,39.1,47.0,40.7,35.0,93,73,44,30.43,30.25,11,2,15,0.00
2013-9-18,74.7,52.5,36.8,53.0,44.0,36.0,99,77,40,30.35,30.17,6,1,10,0.00
2013-9-19,80.2,57.6,41.6,58.0,48.8,41.0,99,77,39,30.18,30.05,6,1,8,0.00
2013-9-20,82.2,59.9,43.4,64.0,52.1,42.0,100,79,38,30.08,29.99,5,1,10,0.01
2013-9-21,68.9,63.2,54.4,66.0,61.0,54.0,98,92,75,30.01,29.66,10,2,16,0.15
2013-9-22,65.8,58.4,48.1,65.0,52.3,41.0,99,81,61,29.87,29.61,10,4,22,0.53
2013-9-23,58.1,48.9,40.1,46.0,42.3,38.0,95,79,63,30.04,29.87,12,4,18,0.00
2013-9-24,64.6,50.9,35.9,47.0,41.8,35.0,97,74,43,30.04,29.87,12,3,19,0.00
2013-9-25,67.7,54.6,43.9,53.0,47.7,42.0,97,79,56,29.95,29.87,7,2,12,0.00
2013-9-26,69.4,56.3,46.0,55.0,50.7,44.0,97,82,60,30.11,29.95,8,1,11,0.00
2013-9-27,60.5,52.5,43.7,54.0,49.2,43.0,99,89,75,30.28,30.11,8,1,13,0.00
2013-9-28,74.9,56.2,41.5,59.0,50.0,41.0,100,82,50,30.34,30.25,6,1,10,0.00
2013-9-29,73.3,54.7,42.6,58.0,49.2,42.0,100,84,50,30.24,30.09,6,1,12,0.00
2013-9-30,73.4,54.9,40.0,58.0,48.5,39.0,100,82,51,30.10,29.96,6,1,8,0.01
2013-10-1,75.0,58.2,43.8,59.0,51.9,43.0,100,82,54,29.99,29.89,9,1,15,0.00
2013-10-2,76.5,61.5,48.8,63.0,56.2,48.0,100,84,60,30.00,29.89,12,2,21,0.01
2013-10-3,74.6,58.0,44.6,53.0,48.6,42.0,99,74,32,30.11,30.00,7,1,12,0.00
2013-10-4,74.9,59.7,50.3,68.0,56.7,49.0,99,90,73,30.07,29.99,5,1,12,0.00
2013-10-5,78.0,64.2,57.4,67.0,60.8,56.0,97,89,66,30.09,30.02,5,1,8,0.00
2013-10-6,63.6,57.9,54.6,62.0,57.4,54.0,100,98,94,30.14,30.05,11,3,16,1.20
2013-10-7,70.4,61.3,53.7,70.0,60.9,53.0,100,98,91,30.06,29.76,16,3,31,0.47
2013-10-8,61.7,51.7,42.0,52.0,44.4,40.0,96,78,50,30.35,29.93,15,3,18,0.00
2013-10-9,63.1,49.2,39.2,49.0,43.5,38.0,97,82,56,30.45,30.34,9,2,16,0.00
2013-10-10,57.9,49.5,42.1,52.0,46.5,41.0,97,89,80,30.34,30.15,7,2,15,0.00
2013-10-11,70.8,57.1,48.9,60.0,51.3,43.0,95,82,64,30.15,30.06,10,3,15,0.00
2013-10-12,67.9,55.8,48.1,58.0,50.8,44.0,92,84,68,30.34,30.11,12,5,23,0.00
2013-10-13,64.2,53.6,44.8,53.0,48.9,43.0,93,84,66,30.40,30.31,11,3,22,0.00
2013-10-14,68.6,50.7,37.7,54.0,45.4,37.0,99,83,52,30.38,30.24,5,1,8,0.00
2013-10-15,70.7,57.0,44.5,60.0,51.7,42.0,98,83,59,30.26,30.13,6,1,11,0.00
2013-10-16,62.0,52.5,43.2,54.0,49.2,41.0,99,89,73,30.13,29.91,6,1,9,0.00
2013-10-17,70.6,60.9,54.8,62.0,57.2,54.0,99,89,58,29.91,29.66,10,1,15,0.01
2013-10-18,62.6,55.7,40.6,61.0,49.0,39.0,99,80,53,29.93,29.60,14,4,22,0.06
2013-10-19,64.3,48.7,35.3,49.0,42.0,34.0,99,80,47,29.98,29.74,5,1,15,0.09
2013-10-20,51.2,48.3,43.1,50.0,46.9,39.0,97,94,85,29.82,29.71,9,2,10,0.01
2013-10-23,50.6,45.6,41.3,38.0,35.1,31.0,86,68,49,29.76,29.60,6,2,10,0.00
2013-10-24,48.2,39.6,30.4,36.0,30.4,27.0,95,71,48,29.93,29.71,13,3,20,0.00
2013-10-25,44.7,36.4,27.7,33.0,28.9,26.0,94,76,57,30.18,29.93,16,3,25,0.00
2013-10-26,50.7,38.6,25.8,36.0,29.5,25.0,98,73,47,30.19,29.88,13,2,22,0.01
2013-10-27,51.7,43.3,29.6,36.0,31.6,27.0,88,65,46,30.09,29.82,13,3,18,0.00
2013-10-28,54.3,39.5,26.1,37.0,31.0,25.0,97,74,49,30.34,30.09,10,3,18,0.00
2013-10-29,47.8,37.9,29.1,31.0,27.2,25.0,86,67,44,30.44,30.35,7,1,11,0.00
2013-10-30,50.5,39.3,28.8,46.0,35.4,25.0,95,86,71,30.35,30.20,6,1,12,0.00
2013-10-31,57.6,48.1,34.9,57.0,47.7,34.0,100,98,95,30.25,29.80,10,1,17,0.18
2013-11-1,63.4,58.3,47.1,62.0,55.4,45.0,99,90,71,29.80,29.48,15,5,31,0.23
2013-11-2,62.9,49.2,37.3,48.0,42.6,36.0,99,80,51,29.75,29.60,9,1,15,0.01
2013-11-3,43.6,37.6,27.6,41.0,30.1,15.0,95,75,57,30.44,29.76,14,3,18,0.00
2013-11-4,41.0,30.9,24.9,22.0,18.2,15.0,83,61,39,30.69,30.45,9,2,21,0.00
2013-11-5,48.4,37.7,25.2,38.0,31.2,22.0,91,78,59,30.70,30.51,7,1,11,0.00
2013-11-6,55.9,46.8,34.0,48.0,42.3,32.0,98,85,67,30.50,30.06,11,2,16,0.00
2013-11-7,58.1,48.4,35.4,55.0,45.8,31.0,97,90,80,30.05,29.71,14,5,23,0.13
2013-11-8,43.2,37.0,33.2,33.0,29.3,24.0,90,75,56,30.14,29.85,18,5,29,0.01
2013-11-9,41.8,35.9,27.4,32.0,27.3,23.0,82,71,60,30.25,30.00,7,2,10,0.00
2013-11-10,52.9,42.1,38.3,39.0,34.7,31.0,85,75,55,30.00,29.79,16,4,25,0.03
2013-11-11,48.1,41.3,33.8,33.0,30.2,28.0,82,65,50,30.15,29.92,15,5,25,0.00
2013-11-12,44.7,30.2,23.6,36.0,22.6,17.0,91,74,63,30.23,29.91,20,6,28,0.02
2013-11-13,31.9,25.9,21.0,18.0,14.9,11.0,76,64,44,30.34,30.22,20,6,23,0.00
2013-11-14,46.7,36.9,25.7,22.0,18.8,16.0,73,50,34,30.22,30.11,11,4,16,0.00
2013-11-15,55.7,40.1,25.2,26.0,20.9,15.0,78,50,26,30.22,30.13,8,2,10,0.00
2013-11-16,54.4,42.7,33.4,41.0,33.5,25.0,94,72,45,30.32,30.21,6,1,13,0.00
2013-11-17,56.0,47.8,33.6,56.0,47.6,32.0,100,98,93,30.28,29.79,7,2,12,0.07
2013-11-18,58.4,54.0,43.1,58.0,43.4,28.0,100,70,44,29.79,29.54,22,6,25,0.27
2013-11-19,42.8,35.4,27.8,31.0,23.9,19.0,73,63,56,30.33,29.70,21,8,31,0.00
2013-11-20,38.0,28.0,19.1,19.0,15.8,10.0,86,63,31,30.64,30.33,10,2,13,0.00
2013-11-21,43.5,31.6,16.0,35.0,24.8,14.0,94,77,55,30.65,30.40,5,1,13,0.00
2013-11-22,47.4,43.5,39.0,46.0,42.1,35.0,98,94,84,30.39,29.86,6,1,9,0.11
2013-11-23,46.9,35.2,24.0,46.0,25.6,11.0,97,69,40,29.99,29.84,21,7,26,0.02
2013-11-24,23.8,18.9,14.8,12.0,5.7,1.0,77,57,43,30.29,29.89,23,11,38,0.00
2013-11-25,29.0,22.6,14.8,15.0,10.9,6.0,72,61,50,30.43,30.30,14,5,22,0.00
2013-11-26,36.4,31.0,27.1,32.0,22.6,14.0,97,72,57,30.33,29.94,7,2,15,0.28
2013-11-27,50.8,39.3,30.3,51.0,38.1,27.0,100,95,82,29.92,29.32,21,6,31,2.06
2013-11-28,30.4,24.6,17.3,27.0,15.6,11.0,88,69,53,30.47,29.61,19,6,30,0.00
2013-11-29,29.8,23.4,17.1,20.0,15.7,13.0,92,73,57,30.75,30.46,11,2,14,0.00
2013-11-30,28.6,21.5,10.5,20.0,12.0,8.0,93,69,48,30.79,30.42,9,1,12,0.00
2013-12-1,45.2,34.7,27.1,38.0,30.4,20.0,93,84,74,30.41,30.02,3,0,5,0.00
2013-12-2,39.5,32.0,27.2,37.0,30.9,26.0,99,95,88,30.02,29.91,7,0,7,0.00
2013-12-3,46.6,32.8,23.5,40.0,29.9,23.0,99,90,65,30.00,29.89,5,1,10,0.01
2013-12-4,47.7,36.0,27.0,36.0,30.7,26.0,96,82,61,30.18,30.00,7,1,10,0.00
2013-12-5,51.9,43.2,36.2,52.0,42.1,32.0,100,96,81,30.18,29.94,9,1,12,0.08
2013-12-6,52.3,40.8,31.8,52.0,39.2,31.0,100,94,78,30.14,29.86,13,4,19,0.51
2013-12-7,32.5,29.5,23.7,31.0,25.2,18.0,95,84,73,30.49,30.09,13,4,21,0.03
2013-12-8,28.0,23.8,16.2,22.0,19.1,14.0,95,82,71,30.60,30.45,9,2,10,0.00
2013-12-9,32.3,28.6,23.1,32.0,27.9,21.0,98,96,86,30.44,29.93,14,3,19,0.00
2013-12-10,32.2,28.1,17.9,32.0,27.2,17.0,98,96,91,30.03,29.82,4,0,7,0.00
2013-12-11,25.2,18.6,12.3,21.0,15.9,10.0,96,89,82,30.26,30.04,10,2,12,0.00
2013-12-12,20.5,14.7,6.9,18.0,9.8,4.0,92,81,62,30.32,30.11,12,2,15,0.00
2013-12-13,27.8,19.2,10.2,18.0,12.4,6.0,85,75,64,30.38,30.06,14,4,22,0.00
2013-12-14,17.6,13.8,10.4,14.0,10.0,8.0,93,85,71,30.54,30.03,14,5,22,0.00
2013-12-15,31.0,24.7,15.8,29.0,22.5,14.0,96,91,81,30.01,29.54,14,4,24,0.00
2013-12-16,24.3,18.1,3.4,21.0,10.8,1.0,95,74,53,30.22,29.76,20,4,21,0.00
2013-12-17,17.4,9.3,-1.8,16.0,7.1,-5.0,93,90,87,30.25,29.98,7,2,14,0.00
2013-12-18,28.8,23.4,17.9,22.0,19.5,15.0,93,85,73,30.12,29.95,12,3,19,0.00
2013-12-19,40.9,30.9,20.2,29.0,23.5,18.0,91,75,55,30.15,29.99,9,3,18,0.16
2013-12-20,51.3,37.6,26.4,34.0,30.2,25.0,95,76,50,30.11,29.95,7,1,11,0.54
2013-12-21,55.8,44.6,35.1,47.0,39.8,32.0,93,83,67,29.99,29.88,13,2,13,0.08
2013-12-22,59.4,54.6,41.5,59.0,53.7,40.0,100,96,89,29.93,29.75,14,3,22,0.05
2013-12-23,55.6,47.3,32.4,54.0,46.3,27.0,100,96,81,30.10,29.91,9,2,18,0.54
2013-12-24,32.3,27.4,19.5,27.0,19.5,11.0,82,73,58,30.27,30.07,16,6,24,0.00
2013-12-25,21.6,16.2,10.2,13.0,7.5,4.0,87,69,54,30.52,30.27,12,3,20,0.00
2013-12-26,29.0,22.8,17.6,26.0,18.9,10.0,93,85,72,30.47,30.13,6,2,14,0.00
2013-12-27,32.5,21.9,11.6,24.0,17.4,10.0,97,84,63,30.33,30.24,14,2,15,0.04
2013-12-28,43.8,29.9,16.6,29.0,24.1,15.0,96,80,55,30.27,30.06,12,2,16,0.03
2013-12-29,39.3,34.0,28.4,37.0,31.7,26.0,98,91,71,30.05,29.47,9,2,17,0.76
2013-12-30,35.1,26.3,12.1,34.0,21.8,7.0,98,84,67,30.19,29.63,11,4,19,0.00
2013-12-31,22.5,16.8,9.1,19.0,11.9,5.0,92,81,67,30.24,30.04,12,3,15,0.00
2014-1-1,24.9,19.5,11.1,17.0,11.1,7.0,89,71,52,30.38,30.23,13,3,17,0.00
2014-1-2,19.5,14.0,5.4,17.0,11.5,3.0,91,89,86,30.32,29.77,16,7,24,0.00